Вернуться в каталог

COSMOS 397 DEB

АктивенLEO
NORAD 5280·DEBRIS·🇷🇺 Russia

Запущен Feb 25, 1971 с Baikonur Cosmodrome

Loading…

Ближайшие Пролёты (ближайшие 24 часа)

TLE

СвежийSource: Space-Track

Эпоха: Sep 14, 2026, 08:45 UTC

1 05280U 71015BF  26257.36516836  .00001368  00000-0  46310-3 0  9994
2 05280  65.6579  24.7158 0739282 258.3312  93.3932 13.43950885655198

Отслеживайте COSMOS 397 DEB в реальном времени с AllMySat

Download on the App Store